Year,Month,Day,Hour,Minute,Value (Times are PST for temperature in C)
2014,07,12,00,00,21.20
2014,07,12,00,01,21.20
2014,07,12,00,02,21.20
2014,07,12,00,03,21.20
2014,07,12,00,04,21.20
2014,07,12,00,05,21.20
2014,07,12,00,06,21.10
2014,07,12,00,07,21.10
2014,07,12,00,08,21.10
2014,07,12,00,09,21.10
2014,07,12,00,10,21.10
2014,07,12,00,11,21.10
2014,07,12,00,12,21.10
2014,07,12,00,13,21.10
2014,07,12,00,14,21.10
2014,07,12,00,15,21.10
2014,07,12,00,16,21.10
2014,07,12,00,17,21.10
2014,07,12,00,18,21.10
2014,07,12,00,19,21.10
2014,07,12,00,20,21.10
2014,07,12,00,21,21.10
2014,07,12,00,22,21.10
2014,07,12,00,23,21.10
2014,07,12,00,24,21.10
2014,07,12,00,25,21.10
2014,07,12,00,26,21.10
2014,07,12,00,27,21.10
2014,07,12,00,28,21.10
2014,07,12,00,29,21.20
2014,07,12,00,30,21.20
2014,07,12,00,31,21.20
2014,07,12,00,32,21.20
2014,07,12,00,33,21.20
2014,07,12,00,34,21.20
2014,07,12,00,35,21.20
2014,07,12,00,36,21.20
2014,07,12,00,37,21.20
2014,07,12,00,38,21.20
2014,07,12,00,39,21.20
2014,07,12,00,40,21.20
2014,07,12,00,41,21.30
2014,07,12,00,42,21.30
2014,07,12,00,43,21.40
2014,07,12,00,44,21.40
2014,07,12,00,45,21.40
2014,07,12,00,46,21.50
2014,07,12,00,47,21.50
2014,07,12,00,48,21.50
2014,07,12,00,49,21.60
2014,07,12,00,50,21.60
2014,07,12,00,51,21.60
2014,07,12,00,52,21.70
2014,07,12,00,53,21.70
2014,07,12,00,54,21.70
2014,07,12,00,55,21.80
2014,07,12,00,56,21.80
2014,07,12,00,57,21.80
2014,07,12,00,58,21.90
2014,07,12,00,59,21.90
2014,07,12,01,00,21.90
2014,07,12,01,01,21.90
2014,07,12,01,02,21.90
2014,07,12,01,03,21.90
2014,07,12,01,04,21.90
2014,07,12,01,05,21.90
2014,07,12,01,06,21.90
2014,07,12,01,07,21.90
2014,07,12,01,08,21.80
2014,07,12,01,09,21.80
2014,07,12,01,10,21.80
2014,07,12,01,11,21.80
2014,07,12,01,12,21.80
2014,07,12,01,13,21.80
2014,07,12,01,14,21.80
2014,07,12,01,15,21.80
2014,07,12,01,16,21.80
2014,07,12,01,17,21.80
2014,07,12,01,18,21.80
2014,07,12,01,19,21.80
2014,07,12,01,20,21.80
2014,07,12,01,21,21.80
2014,07,12,01,22,21.70
2014,07,12,01,23,21.70
2014,07,12,01,24,21.70
2014,07,12,01,25,21.70
2014,07,12,01,26,21.60
2014,07,12,01,27,21.60
2014,07,12,01,28,21.60
2014,07,12,01,29,21.60
2014,07,12,01,30,21.60
2014,07,12,01,31,21.60
2014,07,12,01,32,21.60
2014,07,12,01,33,21.50
2014,07,12,01,34,21.50
2014,07,12,01,35,21.40
2014,07,12,01,36,21.40
2014,07,12,01,37,21.40
2014,07,12,01,38,21.30
2014,07,12,01,39,21.30
2014,07,12,01,40,21.20
2014,07,12,01,41,21.20
2014,07,12,01,42,21.20
2014,07,12,01,43,21.20
2014,07,12,01,44,21.10
2014,07,12,01,45,21.10
2014,07,12,01,46,21.10
2014,07,12,01,47,21.00
2014,07,12,01,48,21.00
2014,07,12,01,49,20.90
2014,07,12,01,50,20.90
2014,07,12,01,51,20.90
2014,07,12,01,52,20.90
2014,07,12,01,53,20.80
2014,07,12,01,54,20.80
2014,07,12,01,55,20.80
2014,07,12,01,56,20.70
2014,07,12,01,57,20.70
2014,07,12,01,58,20.70
2014,07,12,01,59,20.70
2014,07,12,02,00,20.70
2014,07,12,02,01,20.70
2014,07,12,02,02,20.70
2014,07,12,02,03,20.70
2014,07,12,02,04,20.70
2014,07,12,02,05,20.70
2014,07,12,02,06,20.70
2014,07,12,02,07,20.70
2014,07,12,02,08,20.70
2014,07,12,02,09,20.70
2014,07,12,02,10,20.60
2014,07,12,02,11,20.60
2014,07,12,02,12,20.60
2014,07,12,02,13,20.60
2014,07,12,02,14,20.60
2014,07,12,02,15,20.60
2014,07,12,02,16,20.60
2014,07,12,02,17,20.60
2014,07,12,02,18,20.60
2014,07,12,02,19,20.60
2014,07,12,02,20,20.50
2014,07,12,02,21,20.50
2014,07,12,02,22,20.50
2014,07,12,02,23,20.40
2014,07,12,02,24,20.40
2014,07,12,02,25,20.40
2014,07,12,02,26,20.30
2014,07,12,02,27,20.30
2014,07,12,02,28,20.30
2014,07,12,02,29,20.30
2014,07,12,02,30,20.20
2014,07,12,02,31,20.20
2014,07,12,02,32,20.20
2014,07,12,02,33,20.20
2014,07,12,02,34,20.10
2014,07,12,02,35,20.10
2014,07,12,02,36,20.00
2014,07,12,02,37,20.00
2014,07,12,02,38,19.90
2014,07,12,02,39,19.90
2014,07,12,02,40,19.80
2014,07,12,02,41,19.80
2014,07,12,02,42,19.80
2014,07,12,02,43,19.80
2014,07,12,02,44,19.70
2014,07,12,02,45,19.70
2014,07,12,02,46,19.70
2014,07,12,02,47,19.70
2014,07,12,02,48,19.70
2014,07,12,02,49,19.70
2014,07,12,02,50,19.60
2014,07,12,02,51,19.50
2014,07,12,02,52,19.50
2014,07,12,02,53,19.40
2014,07,12,02,54,19.40
2014,07,12,02,55,19.30
2014,07,12,02,56,19.30
2014,07,12,02,57,19.20
2014,07,12,02,58,19.20
2014,07,12,02,59,19.20
2014,07,12,03,00,19.10
2014,07,12,03,01,19.00
2014,07,12,03,02,19.00
2014,07,12,03,03,18.90
2014,07,12,03,04,18.80
2014,07,12,03,05,18.80
2014,07,12,03,06,18.80
2014,07,12,03,07,18.70
2014,07,12,03,08,18.60
2014,07,12,03,09,18.60
2014,07,12,03,10,18.50
2014,07,12,03,11,18.50
2014,07,12,03,12,18.50
2014,07,12,03,13,18.50
2014,07,12,03,14,18.50
2014,07,12,03,15,18.60
2014,07,12,03,16,18.60
2014,07,12,03,17,18.60
2014,07,12,03,18,18.60
2014,07,12,03,19,18.60
2014,07,12,03,20,18.70
2014,07,12,03,21,18.80
2014,07,12,03,22,18.80
2014,07,12,03,23,18.90
2014,07,12,03,24,19.00
2014,07,12,03,25,19.10
2014,07,12,03,26,19.20
2014,07,12,03,27,19.20
2014,07,12,03,28,19.30
2014,07,12,03,29,19.30
2014,07,12,03,30,19.30
2014,07,12,03,31,19.30
2014,07,12,03,32,19.30
2014,07,12,03,33,19.20
2014,07,12,03,34,19.10
2014,07,12,03,35,19.10
2014,07,12,03,36,19.00
2014,07,12,03,37,18.90
2014,07,12,03,38,18.80
2014,07,12,03,39,18.80
2014,07,12,03,40,18.70
2014,07,12,03,41,18.70
2014,07,12,03,42,18.70
2014,07,12,03,43,18.70
2014,07,12,03,44,18.70
2014,07,12,03,45,18.70
2014,07,12,03,46,18.70
2014,07,12,03,47,18.70
2014,07,12,03,48,18.70
2014,07,12,03,49,18.70
2014,07,12,03,50,18.70
2014,07,12,03,51,18.70
2014,07,12,03,52,18.70
2014,07,12,03,53,18.60
2014,07,12,03,54,18.60
2014,07,12,03,55,18.60
2014,07,12,03,56,18.60
2014,07,12,03,57,18.60
2014,07,12,03,58,18.50
2014,07,12,03,59,18.50
2014,07,12,04,00,18.50
2014,07,12,04,01,18.40
2014,07,12,04,02,18.40
2014,07,12,04,03,18.40
2014,07,12,04,04,18.30
2014,07,12,04,05,18.30
2014,07,12,04,06,18.30
2014,07,12,04,07,18.20
2014,07,12,04,08,18.20
2014,07,12,04,09,18.10
2014,07,12,04,10,18.10
2014,07,12,04,11,18.00
2014,07,12,04,12,18.00
2014,07,12,04,13,17.90
2014,07,12,04,14,17.90
2014,07,12,04,15,17.90
2014,07,12,04,16,17.90
2014,07,12,04,17,17.90
2014,07,12,04,18,17.90
2014,07,12,04,19,17.90
2014,07,12,04,20,17.90
2014,07,12,04,21,17.90
2014,07,12,04,22,18.00
2014,07,12,04,23,18.00
2014,07,12,04,24,18.00
2014,07,12,04,25,18.10
2014,07,12,04,26,18.10
2014,07,12,04,27,18.10
2014,07,12,04,28,18.10
2014,07,12,04,29,18.10
2014,07,12,04,30,18.10
2014,07,12,04,31,18.10
2014,07,12,04,32,18.20
2014,07,12,04,33,18.20
2014,07,12,04,34,18.20
2014,07,12,04,35,18.20
2014,07,12,04,36,18.30
2014,07,12,04,37,18.30
2014,07,12,04,38,18.30
2014,07,12,04,39,18.30
2014,07,12,04,40,18.30
2014,07,12,04,41,18.30
2014,07,12,04,42,18.20
2014,07,12,04,43,18.10
2014,07,12,04,44,18.00
2014,07,12,04,45,17.90
2014,07,12,04,46,17.70
2014,07,12,04,47,17.60
2014,07,12,04,48,17.50
2014,07,12,04,49,17.40
2014,07,12,04,50,17.30
2014,07,12,04,51,17.20
2014,07,12,04,52,17.10
2014,07,12,04,53,17.00
2014,07,12,04,54,16.90
2014,07,12,04,55,16.80
2014,07,12,04,56,16.80
2014,07,12,04,57,16.70
2014,07,12,04,58,16.70
2014,07,12,04,59,16.60
2014,07,12,05,00,16.60
2014,07,12,05,01,16.50
2014,07,12,05,02,16.40
2014,07,12,05,03,16.40
2014,07,12,05,04,16.40
2014,07,12,05,05,16.30
2014,07,12,05,06,16.30
2014,07,12,05,07,16.30
2014,07,12,05,08,16.40
2014,07,12,05,09,16.40
2014,07,12,05,10,16.40
2014,07,12,05,11,16.40
2014,07,12,05,12,16.40
2014,07,12,05,13,16.40
2014,07,12,05,14,16.40
2014,07,12,05,15,16.40
2014,07,12,05,16,16.40
2014,07,12,05,17,16.50
2014,07,12,05,18,16.60
2014,07,12,05,19,16.60
2014,07,12,05,20,16.60
2014,07,12,05,21,16.70
2014,07,12,05,22,16.80
2014,07,12,05,23,16.90
2014,07,12,05,24,17.00
2014,07,12,05,25,17.10
2014,07,12,05,26,17.20
2014,07,12,05,27,17.30
2014,07,12,05,28,17.30
2014,07,12,05,29,17.30
2014,07,12,05,30,17.30
2014,07,12,05,31,17.30
2014,07,12,05,32,17.30
2014,07,12,05,33,17.40
2014,07,12,05,34,17.30
2014,07,12,05,35,17.30
2014,07,12,05,36,17.30
2014,07,12,05,37,17.30
2014,07,12,05,38,17.20
2014,07,12,05,39,17.10
2014,07,12,05,40,17.10
2014,07,12,05,41,17.00
2014,07,12,05,42,17.00
2014,07,12,05,43,17.00
2014,07,12,05,44,17.00
2014,07,12,05,45,17.00
2014,07,12,05,46,17.00
2014,07,12,05,47,17.00
2014,07,12,05,48,17.00
2014,07,12,05,49,17.00
2014,07,12,05,50,17.10
2014,07,12,05,51,17.10
2014,07,12,05,52,17.10
2014,07,12,05,53,17.10
2014,07,12,05,54,17.20
2014,07,12,05,55,17.20
2014,07,12,05,56,17.20
2014,07,12,05,57,17.20
2014,07,12,05,58,17.10
2014,07,12,05,59,17.00
2014,07,12,06,00,17.00
2014,07,12,06,01,16.90
2014,07,12,06,02,16.80
2014,07,12,06,03,16.70
2014,07,12,06,04,16.70
2014,07,12,06,05,16.60
2014,07,12,06,06,16.50
2014,07,12,06,07,16.50
2014,07,12,06,08,16.40
2014,07,12,06,09,16.30
2014,07,12,06,10,16.20
2014,07,12,06,11,16.20
2014,07,12,06,12,16.10
2014,07,12,06,13,16.10
2014,07,12,06,14,16.10
2014,07,12,06,15,16.00
2014,07,12,06,16,16.00
2014,07,12,06,17,16.00
2014,07,12,06,18,16.00
2014,07,12,06,19,16.10
2014,07,12,06,20,16.10
2014,07,12,06,21,16.10
2014,07,12,06,22,16.10
2014,07,12,06,23,16.20
2014,07,12,06,24,16.30
2014,07,12,06,25,16.30
2014,07,12,06,26,16.40
2014,07,12,06,27,16.50
2014,07,12,06,28,16.60
2014,07,12,06,29,16.70
2014,07,12,06,30,16.80
2014,07,12,06,31,16.90
2014,07,12,06,32,17.10
2014,07,12,06,33,17.20
2014,07,12,06,34,17.30
2014,07,12,06,35,17.40
2014,07,12,06,36,17.60
2014,07,12,06,37,17.70
2014,07,12,06,38,17.80
2014,07,12,06,39,18.00
2014,07,12,06,40,18.10
2014,07,12,06,41,18.20
2014,07,12,06,42,18.30
2014,07,12,06,43,18.40
2014,07,12,06,44,18.40
2014,07,12,06,45,18.50
2014,07,12,06,46,18.60
2014,07,12,06,47,18.70
2014,07,12,06,48,18.80
2014,07,12,06,49,18.90
2014,07,12,06,50,19.00
2014,07,12,06,51,19.10
2014,07,12,06,52,19.20
2014,07,12,06,53,19.20
2014,07,12,06,54,19.20
2014,07,12,06,55,19.30
2014,07,12,06,56,19.30
2014,07,12,06,57,19.40
2014,07,12,06,58,19.40
2014,07,12,06,59,19.50
2014,07,12,07,00,19.60
2014,07,12,07,01,19.70
2014,07,12,07,02,19.80
2014,07,12,07,03,19.90
2014,07,12,07,04,20.00
2014,07,12,07,05,20.00
2014,07,12,07,06,20.10
2014,07,12,07,07,20.20
2014,07,12,07,08,20.20
2014,07,12,07,09,20.30
2014,07,12,07,10,20.30
2014,07,12,07,11,20.40
2014,07,12,07,12,20.40
2014,07,12,07,13,20.30
2014,07,12,07,14,20.30
2014,07,12,07,15,20.30
2014,07,12,07,16,20.40
2014,07,12,07,17,20.50
2014,07,12,07,18,20.50
2014,07,12,07,19,20.60
2014,07,12,07,20,20.70
2014,07,12,07,21,20.80
2014,07,12,07,22,20.90
2014,07,12,07,23,21.00
2014,07,12,07,24,21.10
2014,07,12,07,25,21.10
2014,07,12,07,26,21.20
2014,07,12,07,27,21.30
2014,07,12,07,28,21.30
2014,07,12,07,29,21.40
2014,07,12,07,30,21.40
2014,07,12,07,31,21.50
2014,07,12,07,32,21.50
2014,07,12,07,33,21.60
2014,07,12,07,34,21.60
2014,07,12,07,35,21.60
2014,07,12,07,36,21.60
2014,07,12,07,37,21.70
2014,07,12,07,38,21.70
2014,07,12,07,39,21.70
2014,07,12,07,40,21.70
2014,07,12,07,41,21.70
2014,07,12,07,42,21.70
2014,07,12,07,43,21.80
2014,07,12,07,44,21.80
2014,07,12,07,45,21.80
2014,07,12,07,46,21.90
2014,07,12,07,47,21.90
2014,07,12,07,48,21.90
2014,07,12,07,49,21.90
2014,07,12,07,50,21.90
2014,07,12,07,51,21.90
2014,07,12,07,52,21.90
2014,07,12,07,53,21.80
2014,07,12,07,54,21.80
2014,07,12,07,55,21.70
2014,07,12,07,56,21.60
2014,07,12,07,57,21.60
2014,07,12,07,58,21.50
2014,07,12,07,59,21.50
2014,07,12,08,00,21.60
2014,07,12,08,01,21.60
2014,07,12,08,02,21.60
2014,07,12,08,03,21.60
2014,07,12,08,04,21.60
2014,07,12,08,05,21.60
2014,07,12,08,06,21.60
2014,07,12,08,07,21.60
2014,07,12,08,08,21.60
2014,07,12,08,09,21.60
2014,07,12,08,10,21.60
2014,07,12,08,11,21.70
2014,07,12,08,12,21.70
2014,07,12,08,13,21.70
2014,07,12,08,14,21.70
2014,07,12,08,15,21.70
2014,07,12,08,16,21.80
2014,07,12,08,17,21.80
2014,07,12,08,18,21.80
2014,07,12,08,19,21.80
2014,07,12,08,20,21.90
2014,07,12,08,21,22.00
2014,07,12,08,22,22.00
2014,07,12,08,23,22.10
2014,07,12,08,24,22.10
2014,07,12,08,25,22.10
2014,07,12,08,26,22.10
2014,07,12,08,27,22.10
2014,07,12,08,28,22.00
2014,07,12,08,29,22.00
2014,07,12,08,30,22.00
2014,07,12,08,31,22.00
2014,07,12,08,32,21.90
2014,07,12,08,33,21.90
2014,07,12,08,34,21.80
2014,07,12,08,35,21.80
2014,07,12,08,36,21.80
2014,07,12,08,37,21.80
2014,07,12,08,38,21.80
2014,07,12,08,39,21.80
2014,07,12,08,40,21.80
2014,07,12,08,41,21.80
2014,07,12,08,42,21.90
2014,07,12,08,43,21.80
2014,07,12,08,44,21.80
2014,07,12,08,45,21.90
2014,07,12,08,46,21.90
2014,07,12,08,47,21.90
2014,07,12,08,48,21.90
2014,07,12,08,49,21.90
2014,07,12,08,50,21.90
2014,07,12,08,51,21.90
2014,07,12,08,52,21.90
2014,07,12,08,53,21.90
2014,07,12,08,54,21.90
2014,07,12,08,55,22.00
2014,07,12,08,56,22.00
2014,07,12,08,57,22.00
2014,07,12,08,58,22.00
2014,07,12,08,59,22.00
2014,07,12,09,00,22.00
2014,07,12,09,01,22.10
2014,07,12,09,02,22.10
2014,07,12,09,03,22.20
2014,07,12,09,04,22.20
2014,07,12,09,05,22.30
2014,07,12,09,06,22.40
2014,07,12,09,07,22.40
2014,07,12,09,08,22.50
2014,07,12,09,09,22.60
2014,07,12,09,10,22.60
2014,07,12,09,11,22.70
2014,07,12,09,12,22.70
2014,07,12,09,13,22.80
2014,07,12,09,14,22.80
2014,07,12,09,15,22.80
2014,07,12,09,16,22.90
2014,07,12,09,17,22.90
2014,07,12,09,18,22.90
2014,07,12,09,19,22.90
2014,07,12,09,20,22.90
2014,07,12,09,21,23.00
2014,07,12,09,22,23.00
2014,07,12,09,23,23.10
2014,07,12,09,24,23.10
2014,07,12,09,25,23.20
2014,07,12,09,26,23.20
2014,07,12,09,27,23.20
2014,07,12,09,28,23.30
2014,07,12,09,29,23.30
2014,07,12,09,30,23.30
2014,07,12,09,31,23.30
2014,07,12,09,32,23.30
2014,07,12,09,33,23.30
2014,07,12,09,34,23.30
2014,07,12,09,35,23.30
2014,07,12,09,36,23.20
2014,07,12,09,37,23.10
2014,07,12,09,38,23.00
2014,07,12,09,39,22.90
2014,07,12,09,40,22.80
2014,07,12,09,41,22.80
2014,07,12,09,42,22.80
2014,07,12,09,43,22.80
2014,07,12,09,44,22.80
2014,07,12,09,45,22.80
2014,07,12,09,46,22.80
2014,07,12,09,47,22.80
2014,07,12,09,48,22.80
2014,07,12,09,49,22.80
2014,07,12,09,50,22.80
2014,07,12,09,51,22.90
2014,07,12,09,52,22.90
2014,07,12,09,53,23.00
2014,07,12,09,54,23.00
2014,07,12,09,55,23.00
2014,07,12,09,56,23.10
2014,07,12,09,57,23.10
2014,07,12,09,58,23.00
2014,07,12,09,59,23.00
2014,07,12,10,00,23.00
2014,07,12,10,01,23.10
2014,07,12,10,02,23.10
2014,07,12,10,03,23.10
2014,07,12,10,04,23.10
2014,07,12,10,05,23.10
2014,07,12,10,06,23.20
2014,07,12,10,07,23.20
2014,07,12,10,08,23.30
2014,07,12,10,09,23.20
2014,07,12,10,10,23.30
2014,07,12,10,11,23.30
2014,07,12,10,12,23.40
2014,07,12,10,13,23.40
2014,07,12,10,14,23.40
2014,07,12,10,15,23.50
2014,07,12,10,16,23.50
2014,07,12,10,17,23.50
2014,07,12,10,18,23.50
2014,07,12,10,19,23.50
2014,07,12,10,20,23.50
2014,07,12,10,21,23.50
2014,07,12,10,22,23.60
2014,07,12,10,23,23.60
2014,07,12,10,24,23.70
2014,07,12,10,25,23.70
2014,07,12,10,26,23.80
2014,07,12,10,27,23.80
2014,07,12,10,28,23.90
2014,07,12,10,29,24.00
2014,07,12,10,30,24.10
2014,07,12,10,31,24.20
2014,07,12,10,32,24.30
2014,07,12,10,33,24.40
2014,07,12,10,34,24.40
2014,07,12,10,35,24.40
2014,07,12,10,36,24.40
2014,07,12,10,37,24.40
2014,07,12,10,38,24.30
2014,07,12,10,39,24.20
2014,07,12,10,40,24.10
2014,07,12,10,41,24.00
2014,07,12,10,42,23.90
2014,07,12,10,43,23.90
2014,07,12,10,44,23.90
2014,07,12,10,45,23.90
2014,07,12,10,46,24.00
2014,07,12,10,47,24.00
2014,07,12,10,48,24.10
2014,07,12,10,49,24.10
2014,07,12,10,50,24.10
2014,07,12,10,51,24.10
2014,07,12,10,52,24.10
2014,07,12,10,53,24.00
2014,07,12,10,54,24.00
2014,07,12,10,55,24.00
2014,07,12,10,56,24.10
2014,07,12,10,57,24.10
2014,07,12,10,58,24.20
2014,07,12,10,59,24.20
2014,07,12,11,00,24.20
2014,07,12,11,01,24.20
2014,07,12,11,02,24.20
2014,07,12,11,03,24.10
2014,07,12,11,04,24.20
2014,07,12,11,05,24.20
2014,07,12,11,06,24.30
2014,07,12,11,07,24.30
2014,07,12,11,08,24.40
2014,07,12,11,09,24.50
2014,07,12,11,10,24.60
2014,07,12,11,11,24.70
2014,07,12,11,12,24.70
2014,07,12,11,13,24.80
2014,07,12,11,14,24.80
2014,07,12,11,15,24.80
2014,07,12,11,16,24.80
2014,07,12,11,17,24.90
2014,07,12,11,18,25.00
2014,07,12,11,19,25.00
2014,07,12,11,20,25.10
2014,07,12,11,21,25.20
2014,07,12,11,22,25.20
2014,07,12,11,23,25.10
2014,07,12,11,24,25.00
2014,07,12,11,25,25.00
2014,07,12,11,26,25.00
2014,07,12,11,27,25.00
2014,07,12,11,28,25.10
2014,07,12,11,29,25.00
2014,07,12,11,30,25.10
2014,07,12,11,31,25.10
2014,07,12,11,32,25.10
2014,07,12,11,33,25.10
2014,07,12,11,34,25.10
2014,07,12,11,35,25.20
2014,07,12,11,36,25.20
2014,07,12,11,37,25.30
2014,07,12,11,38,25.30
2014,07,12,11,39,25.30
2014,07,12,11,40,25.30
2014,07,12,11,41,25.30
2014,07,12,11,42,25.20
2014,07,12,11,43,25.20
2014,07,12,11,44,25.30
2014,07,12,11,45,25.30
2014,07,12,11,46,25.20
2014,07,12,11,47,25.20
2014,07,12,11,48,25.20
2014,07,12,11,49,25.20
2014,07,12,11,50,25.20
2014,07,12,11,51,25.20
2014,07,12,11,52,25.20
2014,07,12,11,53,25.20
2014,07,12,11,54,25.30
2014,07,12,11,55,25.40
2014,07,12,11,56,25.40
2014,07,12,11,57,25.50
2014,07,12,11,58,25.50
2014,07,12,11,59,25.50
2014,07,12,12,00,25.60
2014,07,12,12,01,25.60
2014,07,12,12,02,25.60
2014,07,12,12,03,25.70
2014,07,12,12,04,25.70
2014,07,12,12,05,25.70
2014,07,12,12,06,25.80
2014,07,12,12,07,25.80
2014,07,12,12,08,25.90
2014,07,12,12,09,25.90
2014,07,12,12,10,26.00
2014,07,12,12,11,26.00
2014,07,12,12,12,26.10
2014,07,12,12,13,26.10
2014,07,12,12,14,26.20
2014,07,12,12,15,26.20
2014,07,12,12,16,26.30
2014,07,12,12,17,26.30
2014,07,12,12,18,26.30
2014,07,12,12,19,26.30
2014,07,12,12,20,26.30
2014,07,12,12,21,26.30
2014,07,12,12,22,26.30
2014,07,12,12,23,26.30
2014,07,12,12,24,26.30
2014,07,12,12,25,26.40
2014,07,12,12,26,26.40
2014,07,12,12,27,26.50
2014,07,12,12,28,26.50
2014,07,12,12,29,26.50
2014,07,12,12,30,26.50
2014,07,12,12,31,26.50
2014,07,12,12,32,26.40
2014,07,12,12,33,26.40
2014,07,12,12,34,26.40
2014,07,12,12,35,26.50
2014,07,12,12,36,26.60
2014,07,12,12,37,26.60
2014,07,12,12,38,26.60
2014,07,12,12,39,26.70
2014,07,12,12,40,26.80
2014,07,12,12,41,26.80
2014,07,12,12,42,26.80
2014,07,12,12,43,26.70
2014,07,12,12,44,26.70
2014,07,12,12,45,26.70
2014,07,12,12,46,26.70
2014,07,12,12,47,26.70
2014,07,12,12,48,26.70
2014,07,12,12,49,26.70
2014,07,12,12,50,26.80
2014,07,12,12,51,26.70
2014,07,12,12,52,26.70
2014,07,12,12,53,26.70
2014,07,12,12,54,26.60
2014,07,12,12,55,26.60
2014,07,12,12,56,26.60
2014,07,12,12,57,26.50
2014,07,12,12,58,26.50
2014,07,12,12,59,26.50
2014,07,12,13,00,26.60
2014,07,12,13,01,26.60
2014,07,12,13,02,26.70
2014,07,12,13,03,26.80
2014,07,12,13,04,26.90
2014,07,12,13,05,26.90
2014,07,12,13,06,27.00
2014,07,12,13,07,27.10
2014,07,12,13,08,27.00
2014,07,12,13,09,27.00
2014,07,12,13,10,27.00
2014,07,12,13,11,26.90
2014,07,12,13,12,26.90
2014,07,12,13,13,26.90
2014,07,12,13,14,26.80
2014,07,12,13,15,26.80
2014,07,12,13,16,26.80
2014,07,12,13,17,26.80
2014,07,12,13,18,26.80
2014,07,12,13,19,26.70
2014,07,12,13,20,26.70
2014,07,12,13,21,26.70
2014,07,12,13,22,26.80
2014,07,12,13,23,26.90
2014,07,12,13,24,26.90
2014,07,12,13,25,27.00
2014,07,12,13,26,27.10
2014,07,12,13,27,27.20
2014,07,12,13,28,27.30
2014,07,12,13,29,27.40
2014,07,12,13,30,27.50
2014,07,12,13,31,27.50
2014,07,12,13,32,27.50
2014,07,12,13,33,27.50
2014,07,12,13,34,27.50
2014,07,12,13,35,27.50
2014,07,12,13,36,27.60
2014,07,12,13,37,27.70
2014,07,12,13,38,27.70
2014,07,12,13,39,27.90
2014,07,12,13,40,27.90
2014,07,12,13,41,27.90
2014,07,12,13,42,27.90
2014,07,12,13,43,27.90
2014,07,12,13,44,27.90
2014,07,12,13,45,28.00
2014,07,12,13,46,28.00
2014,07,12,13,47,28.10
2014,07,12,13,48,28.20
2014,07,12,13,49,28.20
2014,07,12,13,50,28.20
2014,07,12,13,51,28.20
2014,07,12,13,52,28.20
2014,07,12,13,53,28.30
2014,07,12,13,54,28.30
2014,07,12,13,55,28.40
2014,07,12,13,56,28.50
2014,07,12,13,57,28.60
2014,07,12,13,58,28.70
2014,07,12,13,59,28.60
2014,07,12,14,00,28.60
2014,07,12,14,01,28.50
2014,07,12,14,02,28.50
2014,07,12,14,03,28.50
2014,07,12,14,04,28.60
2014,07,12,14,05,28.70
2014,07,12,14,06,28.70
2014,07,12,14,07,28.60
2014,07,12,14,08,28.60
2014,07,12,14,09,28.60
2014,07,12,14,10,28.60
2014,07,12,14,11,28.60
2014,07,12,14,12,28.70
2014,07,12,14,13,28.70
2014,07,12,14,14,28.50
2014,07,12,14,15,28.40
2014,07,12,14,16,28.20
2014,07,12,14,17,28.10
2014,07,12,14,18,28.10
2014,07,12,14,19,28.00
2014,07,12,14,20,28.00
2014,07,12,14,21,27.90
2014,07,12,14,22,27.90
2014,07,12,14,23,27.90
2014,07,12,14,24,27.90
2014,07,12,14,25,28.00
2014,07,12,14,26,28.00
2014,07,12,14,27,28.00
2014,07,12,14,28,28.10
2014,07,12,14,29,28.20
2014,07,12,14,30,28.20
2014,07,12,14,31,28.30
2014,07,12,14,32,28.30
2014,07,12,14,33,28.40
2014,07,12,14,34,28.40
2014,07,12,14,35,28.50
2014,07,12,14,36,28.60
2014,07,12,14,37,28.60
2014,07,12,14,38,28.60
2014,07,12,14,39,28.60
2014,07,12,14,40,28.60
2014,07,12,14,41,28.60
2014,07,12,14,42,28.60
2014,07,12,14,43,28.60
2014,07,12,14,44,28.60
2014,07,12,14,45,28.60
2014,07,12,14,46,28.60
2014,07,12,14,47,28.60
2014,07,12,14,48,28.70
2014,07,12,14,49,28.70
2014,07,12,14,50,28.70
2014,07,12,14,51,28.70
2014,07,12,14,52,28.70
2014,07,12,14,53,28.70
2014,07,12,14,54,28.70
2014,07,12,14,55,28.70
2014,07,12,14,56,28.60
2014,07,12,14,57,28.60
2014,07,12,14,58,28.60
2014,07,12,14,59,28.60
2014,07,12,15,00,28.60
2014,07,12,15,01,28.70
2014,07,12,15,02,28.70
2014,07,12,15,03,28.70
2014,07,12,15,04,28.70
2014,07,12,15,05,28.70
2014,07,12,15,06,28.80
2014,07,12,15,07,28.80
2014,07,12,15,08,28.70
2014,07,12,15,09,28.70
2014,07,12,15,10,28.70
2014,07,12,15,11,28.70
2014,07,12,15,12,28.70
2014,07,12,15,13,28.70
2014,07,12,15,14,28.70
2014,07,12,15,15,28.70
2014,07,12,15,16,28.70
2014,07,12,15,17,28.70
2014,07,12,15,18,28.70
2014,07,12,15,19,28.70
2014,07,12,15,20,28.70
2014,07,12,15,21,28.70
2014,07,12,15,22,28.80
2014,07,12,15,23,28.80
2014,07,12,15,24,28.90
2014,07,12,15,25,29.00
2014,07,12,15,26,29.00
2014,07,12,15,27,29.10
2014,07,12,15,28,29.20
2014,07,12,15,29,29.20
2014,07,12,15,30,29.20
2014,07,12,15,31,29.10
2014,07,12,15,32,29.10
2014,07,12,15,33,29.10
2014,07,12,15,34,29.10
2014,07,12,15,35,29.10
2014,07,12,15,36,29.10
2014,07,12,15,37,29.10
2014,07,12,15,38,29.10
2014,07,12,15,39,29.10
2014,07,12,15,40,29.10
2014,07,12,15,41,29.10
2014,07,12,15,42,29.10
2014,07,12,15,43,29.00
2014,07,12,15,44,29.00
2014,07,12,15,45,29.10
2014,07,12,15,46,29.10
2014,07,12,15,47,29.20
2014,07,12,15,48,29.20
2014,07,12,15,49,29.20
2014,07,12,15,50,29.20
2014,07,12,15,51,29.20
2014,07,12,15,52,29.10
2014,07,12,15,53,29.00
2014,07,12,15,54,28.90
2014,07,12,15,55,28.90
2014,07,12,15,56,28.90
2014,07,12,15,57,28.90
2014,07,12,15,58,28.80
2014,07,12,15,59,28.80
2014,07,12,16,00,28.80
2014,07,12,16,01,28.70
2014,07,12,16,02,28.70
2014,07,12,16,03,28.70
2014,07,12,16,04,28.70
2014,07,12,16,05,28.70
2014,07,12,16,06,28.70
2014,07,12,16,07,28.70
2014,07,12,16,08,28.80
2014,07,12,16,09,28.90
2014,07,12,16,10,28.90
2014,07,12,16,11,28.90
2014,07,12,16,12,28.90
2014,07,12,16,13,28.90
2014,07,12,16,14,28.90
2014,07,12,16,15,28.80
2014,07,12,16,16,28.80
2014,07,12,16,17,28.80
2014,07,12,16,18,28.80
2014,07,12,16,19,28.80
2014,07,12,16,20,28.90
2014,07,12,16,21,28.90
2014,07,12,16,22,28.90
2014,07,12,16,23,28.90
2014,07,12,16,24,29.00
2014,07,12,16,25,29.10
2014,07,12,16,26,29.10
2014,07,12,16,27,29.20
2014,07,12,16,28,29.20
2014,07,12,16,29,29.30
2014,07,12,16,30,29.40
2014,07,12,16,31,29.40
2014,07,12,16,32,29.40
2014,07,12,16,33,29.40
2014,07,12,16,34,29.40
2014,07,12,16,35,29.30
2014,07,12,16,36,29.30
2014,07,12,16,37,29.30
2014,07,12,16,38,29.30
2014,07,12,16,39,29.30
2014,07,12,16,40,29.30
2014,07,12,16,41,29.30
2014,07,12,16,42,29.30
2014,07,12,16,43,29.30
2014,07,12,16,44,29.30
2014,07,12,16,45,29.30
2014,07,12,16,46,29.40
2014,07,12,16,47,29.40
2014,07,12,16,48,29.40
2014,07,12,16,49,29.40
2014,07,12,16,50,29.30
2014,07,12,16,51,29.30
2014,07,12,16,52,29.20
2014,07,12,16,53,29.10
2014,07,12,16,54,29.00
2014,07,12,16,55,29.00
2014,07,12,16,56,29.00
2014,07,12,16,57,29.10
2014,07,12,16,58,29.10
2014,07,12,16,59,29.10
2014,07,12,17,00,29.20
2014,07,12,17,01,29.30
2014,07,12,17,02,29.30
2014,07,12,17,03,29.30
2014,07,12,17,04,29.30
2014,07,12,17,05,29.30
2014,07,12,17,06,29.40
2014,07,12,17,07,29.40
2014,07,12,17,08,29.40
2014,07,12,17,09,29.50
2014,07,12,17,10,29.50
2014,07,12,17,11,29.50
2014,07,12,17,12,29.50
2014,07,12,17,13,29.40
2014,07,12,17,14,29.40
2014,07,12,17,15,29.40
2014,07,12,17,16,29.40
2014,07,12,17,17,29.40
2014,07,12,17,18,29.40
2014,07,12,17,19,29.40